Weather History for Pinedale, WY

Change the Weather History Date:

Friday, February 1, 2013

  Actual Average (KBPI) Record (KBPI)
Temperature  
Mean Temperature 23 °F 11 °F  
Max Temperature 32 °F 26 °F 50 °F (2003)
Min Temperature 14 °F -2 °F -44 °F (1985)
Degree Days  
Heating Degree Days 42 54  
Month to date heating degree days 54  
Since 1 July heating degree days 6167  
Cooling Degree Days 0 0  
Month to date cooling degree days 0  
Year to date cooling degree days 0  
Moisture  
Dew Point 20 °F    
Average Humidity 86    
Maximum Humidity 100    
Minimum Humidity 64    
Precipitation  
Precipitation 0.00 in 0.01 in 0.08 in (1989)
Month to date precipitation 0.01  
Year to date precipitation 0.32  
Sea Level Pressure  
Sea Level Pressure 30.17 in    
Wind  
Wind Speed 5 mph (WNW)    
Max Wind Speed 26 mph    
Max Gust Speed 33 mph    
Visibility 8 miles    
Events Snow    
T = Trace of Precipitation, MM = Missing Value Source: NWS Daily Summary

Daily Weather History Graph

Daily Weather History Graph

Search for Another Location

Airport:

Trip Planner

Search our weather history database for the weather conditions in past years. The results will help you decide how hot, cold, wet, or windy it might be!

Date:

Astronomy

Feb. 01, 2013 Rise Set
Actual Time 7:33 AM MST 5:32 PM MST
Civil Twilight 7:03 AM MST 6:02 PM MST
Nautical Twilight 6:29 AM MST 6:36 PM MST
Astronomical Twilight 5:56 AM MST 7:09 PM MST
Moon 11:54 PM MST (2/1) 9:59 AM MST (2/1)
Length of Visible Light 10h 59m
Length of Day
9h 59m
Waning Gibbous, 69% of the Moon is Illuminated
Feb 1
Waning Gibbous
Feb 3
Last Quarter
Feb 10
New
Feb 17
First Quarter
Feb 25
Full

Hourly Weather History & Observations

Time (MST) Temp. Windchill Dew Point Humidity Pressure Visibility Wind Dir Wind Speed Gust Speed Precip Events Conditions
12:15 AM 21.2 °F - 19.4 °F 93% 30.16 in 10.0 mi Calm Calm - N/A Snow Light Snow
12:35 AM 21.2 °F - 19.4 °F 93% 30.15 in 10.0 mi Calm Calm - N/A Snow Light Snow
12:55 AM 21.2 °F - 19.4 °F 93% 30.16 in 10.0 mi Calm Calm - N/A   Overcast
1:15 AM 21.2 °F - 21.2 °F 100% 30.15 in 7.0 mi Calm Calm - N/A Snow Light Snow
1:35 AM 21.2 °F 16.4 °F 21.2 °F 100% 30.14 in 5.0 mi ENE 3.5 mph - N/A Snow Light Snow
1:55 AM 19.4 °F 10.4 °F 19.4 °F 100% 30.14 in 10.0 mi NNE 6.9 mph - N/A   Mostly Cloudy
2:15 AM 21.2 °F - 21.2 °F 100% 30.15 in 7.0 mi Calm Calm - N/A Snow Light Snow
2:35 AM 19.4 °F - 19.4 °F 100% 30.15 in 4.0 mi Calm Calm - N/A Snow Light Snow
3:15 AM 19.4 °F - 19.4 °F 100% 30.14 in 3.0 mi Calm Calm - N/A Snow Light Snow
3:35 AM 21.2 °F - 19.4 °F 93% 30.13 in 7.0 mi Calm Calm - N/A Snow Light Snow
3:55 AM 19.4 °F - 19.4 °F 100% 30.13 in 5.0 mi Calm Calm - N/A Snow Light Snow
4:15 AM 19.4 °F 14.3 °F 19.4 °F 100% 30.13 in 10.0 mi NW 3.5 mph - N/A   Overcast
4:35 AM 19.4 °F - 19.4 °F 100% 30.13 in 7.0 mi Calm Calm - N/A Snow Light Snow
4:55 AM 21.2 °F 16.4 °F 21.2 °F 100% 30.13 in 3.0 mi WNW 3.5 mph - N/A Snow Light Snow
5:15 AM 21.2 °F 14.9 °F 21.2 °F 100% 30.13 in 3.0 mi WSW 4.6 mph - N/A Snow Light Snow
5:35 AM 19.4 °F 14.3 °F 19.4 °F 100% 30.11 in 5.0 mi WNW 3.5 mph - N/A Snow Light Snow
5:55 AM 21.2 °F 13.6 °F 21.2 °F 100% 30.12 in 7.0 mi West 5.8 mph - N/A Snow Light Snow
6:15 AM 21.2 °F - 21.2 °F 100% 30.11 in 7.0 mi Calm Calm - N/A Snow Light Snow
6:35 AM 19.4 °F 14.3 °F 17.6 °F 93% 30.11 in 10.0 mi WNW 3.5 mph - N/A   Mostly Cloudy
6:55 AM 19.4 °F 14.3 °F 19.4 °F 100% 30.11 in 7.0 mi NW 3.5 mph - N/A Snow Light Snow
7:15 AM 17.6 °F 12.3 °F 17.6 °F 100% 30.11 in 10.0 mi NE 3.5 mph - N/A Snow Light Snow
7:35 AM 19.4 °F 14.3 °F 19.4 °F 100% 30.11 in 3.0 mi WSW 3.5 mph - N/A Snow Light Snow
7:55 AM 21.2 °F - 21.2 °F 100% 30.11 in 4.0 mi Calm Calm - N/A Snow Light Snow
8:15 AM 21.2 °F 16.4 °F 21.2 °F 100% 30.11 in 4.0 mi West 3.5 mph - N/A Snow Light Snow
8:35 AM 21.2 °F 16.4 °F 21.2 °F 100% 30.11 in 3.0 mi WSW 3.5 mph - N/A Snow Light Snow
9:15 AM 23.0 °F 17.0 °F 23.0 °F 100% 30.11 in 5.0 mi East 4.6 mph - N/A Snow Light Snow
9:35 AM 23.0 °F - 23.0 °F 100% 30.11 in 10.0 mi Calm Calm - N/A   Overcast
9:55 AM 26.6 °F 22.6 °F 23.0 °F 86% 30.11 in 7.0 mi ENE 3.5 mph - N/A   Overcast
10:15 AM 26.6 °F - 24.8 °F 93% 30.13 in 3.0 mi Calm Calm - N/A Snow Light Snow
10:35 AM 30.2 °F 21.3 °F 26.6 °F 86% 30.13 in 7.0 mi West 10.4 mph - N/A   Overcast
10:55 AM 30.2 °F 20.2 °F 26.6 °F 86% 30.13 in 10.0 mi West 12.7 mph - N/A   Overcast
11:15 AM 30.2 °F 19.8 °F 26.6 °F 86% 30.14 in 1.8 mi WNW 13.8 mph 18.4 mph N/A Snow Light Snow
11:35 AM 30.2 °F 20.8 °F 26.6 °F 86% 30.15 in 10.0 mi WNW 11.5 mph - N/A   Mostly Cloudy
11:55 AM 30.2 °F 19.8 °F 26.6 °F 86% 30.14 in 3.0 mi WNW 13.8 mph - N/A Snow Light Snow
12:15 PM 32.0 °F 20.5 °F 24.8 °F 75% 30.14 in 10.0 mi West 18.4 mph - N/A   Scattered Clouds
12:35 PM 32.0 °F 21.2 °F 24.8 °F 75% 30.14 in 10.0 mi WNW 16.1 mph 24.2 mph N/A   Clear
12:55 PM 32.0 °F 20.8 °F 23.0 °F 69% 30.14 in 10.0 mi WNW 17.3 mph 24.2 mph N/A   Clear
1:15 PM 32.0 °F 19.5 °F 23.0 °F 69% 30.14 in 1.0 mi West 21.9 mph 29.9 mph N/A Snow Light Snow
1:35 PM 30.2 °F 15.9 °F 23.0 °F 75% 30.13 in 7.0 mi West 26.5 mph 31.1 mph N/A   Clear
2:15 PM 32.0 °F 18.9 °F 23.0 °F 69% 30.13 in 10.0 mi WNW 24.2 mph 31.1 mph N/A   Clear
2:35 PM 30.2 °F 16.2 °F 23.0 °F 75% 30.14 in 2.5 mi WNW 25.3 mph 33.4 mph N/A   Haze
2:55 PM 30.2 °F 17.8 °F 23.0 °F 75% 30.15 in 10.0 mi WNW 19.6 mph 27.6 mph N/A   Clear
3:15 PM 30.2 °F 19.3 °F 23.0 °F 75% 30.16 in 10.0 mi NW 15.0 mph 27.6 mph N/A   Clear
3:35 PM 32.0 °F 22.1 °F 21.2 °F 64% 30.18 in 10.0 mi WNW 13.8 mph 19.6 mph N/A   Clear
3:55 PM 30.2 °F 21.3 °F 21.2 °F 69% 30.19 in 10.0 mi NW 10.4 mph - N/A   Scattered Clouds
4:15 PM 30.2 °F 21.9 °F 21.2 °F 69% 30.19 in 10.0 mi WNW 9.2 mph - N/A   Scattered Clouds
4:35 PM 28.4 °F 17.5 °F 21.2 °F 74% 30.19 in 10.0 mi WNW 13.8 mph - N/A   Scattered Clouds
4:55 PM 28.4 °F 17.5 °F 21.2 °F 74% 30.19 in 10.0 mi WNW 13.8 mph - N/A   Clear
5:15 PM 26.6 °F 16.2 °F 19.4 °F 74% 30.19 in 10.0 mi West 11.5 mph - N/A   Clear
5:35 PM 26.6 °F 17.5 °F 17.6 °F 69% 30.21 in 10.0 mi West 9.2 mph - N/A   Clear
5:55 PM 23.0 °F 15.8 °F 17.6 °F 80% 30.22 in 10.0 mi West 5.8 mph - N/A   Scattered Clouds
6:15 PM 23.0 °F 17.0 °F 17.6 °F 80% 30.22 in 10.0 mi WNW 4.6 mph - N/A   Mostly Cloudy
6:35 PM 23.0 °F 13.1 °F 17.6 °F 80% 30.23 in 10.0 mi WNW 9.2 mph - N/A   Overcast
6:55 PM 23.0 °F 14.7 °F 17.6 °F 80% 30.23 in 10.0 mi WNW 6.9 mph - N/A   Scattered Clouds
7:15 PM 23.0 °F 13.9 °F 17.6 °F 80% 30.23 in 10.0 mi West 8.1 mph - N/A   Scattered Clouds
7:35 PM 23.0 °F 11.7 °F 17.6 °F 80% 30.24 in 10.0 mi West 11.5 mph - N/A   Scattered Clouds
7:55 PM 21.2 °F 8.9 °F 15.8 °F 80% 30.24 in 10.0 mi West 12.7 mph - N/A   Clear
8:15 PM 17.6 °F 6.4 °F 12.2 °F 79% 30.24 in 10.0 mi WNW 9.2 mph - N/A   Clear
8:35 PM 17.6 °F 8.2 °F 14.0 °F 86% 30.24 in 10.0 mi West 6.9 mph - N/A   Clear
8:55 PM 19.4 °F 12.8 °F 12.2 °F 74% 30.25 in 10.0 mi NW 4.6 mph - N/A   Clear
9:15 PM 17.6 °F 8.2 °F 12.2 °F 79% 30.25 in 10.0 mi North 6.9 mph - N/A   Clear
9:35 PM 17.6 °F 9.3 °F 12.2 °F 79% 30.26 in 10.0 mi NW 5.8 mph - N/A   Clear
9:55 PM 19.4 °F 10.4 °F 14.0 °F 80% 30.27 in 10.0 mi WNW 6.9 mph - N/A   Clear
10:15 PM 17.6 °F 7.3 °F 12.2 °F 79% 30.28 in 10.0 mi WNW 8.1 mph - N/A   Clear
10:35 PM 17.6 °F 6.4 °F 12.2 °F 79% 30.27 in 10.0 mi WNW 9.2 mph - N/A   Clear
10:55 PM 17.6 °F 6.4 °F 12.2 °F 79% 30.29 in 10.0 mi West 9.2 mph - N/A   Clear
11:15 PM 15.8 °F 4.2 °F 12.2 °F 86% 30.29 in 10.0 mi West 9.2 mph - N/A   Clear
11:35 PM 14.0 °F 1.2 °F 10.4 °F 86% 30.29 in 10.0 mi WNW 10.4 mph - N/A   Clear
11:55 PM 21.2 °F 7.8 °F 14.0 °F 74% 30.29 in 10.0 mi NW 15.0 mph - N/A   Clear